This is the latest recevied weather packets stored in our database for station/object W1LBM. If no packets are shown the sender has not sent any weather packets the latest 10 day(s).
| Time | Temp. | Humidity | Pressure | Rain* | Wind** | Luminosity | Snow |
|---|---|---|---|---|---|---|---|
| 1777835961 | 12.22° C | 42% | 1009.4 hPa | 0 mm | - | 371 W/m² | - |
| 1777835660 | 11.67° C | 45% | 1009.2 hPa | 0 mm | - | 340 W/m² | - |
| 1777835355 | 11.11° C | 45% | 1009.3 hPa | 0 mm | - | 268 W/m² | - |
| 1777835053 | 11.11° C | 44% | 1009.4 hPa | 0 mm | - | 206 W/m² | - |
| 1777834749 | 11.67° C | 45% | 1009.4 hPa | 0 mm | - | 236 W/m² | - |
| 1777834446 | 11.67° C | 44% | 1009.3 hPa | 0 mm | - | 189 W/m² | - |
| 1777834145 | 11.67° C | 45% | 1009.1 hPa | 0 mm | - | 174 W/m² | - |
| 1777833842 | 11.67° C | 43% | 1009.4 hPa | 0 mm | - | 167 W/m² | - |
| 1777833538 | 11.67° C | 42% | 1009.3 hPa | 0 mm | - | 273 W/m² | - |
| 1777833235 | 11.67° C | 44% | 1009.3 hPa | 0 mm | - | 409 W/m² | - |
| 1777832932 | 11.11° C | 42% | 1009.3 hPa | 0 mm | - | 307 W/m² | - |
| 1777832631 | 11.11° C | 42% | 1009.3 hPa | 0 mm | - | 224 W/m² | - |
| 1777832328 | 11.11° C | 43% | 1009.4 hPa | 0 mm | - | 135 W/m² | - |
| 1777832025 | 11.11° C | 45% | 1009.2 hPa | 0 mm | - | 138 W/m² | - |
| 1777831722 | 11.11° C | 45% | 1009.3 hPa | 0 mm | - | 98 W/m² | - |
| 1777831420 | 11.11° C | 44% | 1009.3 hPa | 0 mm | - | 111 W/m² | - |
| 1777831116 | 11.67° C | 44% | 1009.2 hPa | 0 mm | - | 178 W/m² | - |
| 1777830814 | 11.11° C | 47% | 1009.2 hPa | 0 mm | - | 449 W/m² | - |
| 1777830515 | 11.11° C | 45% | 1009.2 hPa | 0 mm | - | 338 W/m² | - |
| 1777830214 | 11.11° C | 44% | 1009.3 hPa | 0 mm | - | 285 W/m² | - |
| 1777829914 | 10.56° C | 47% | 1009.2 hPa | 0 mm | - | 224 W/m² | - |
| 1777829611 | 10.56° C | 46% | 1009.4 hPa | 0 mm | - | 133 W/m² | - |
| 1777829307 | 11.11° C | 48% | 1009.3 hPa | 0 mm | - | 155 W/m² | - |
| 1777829005 | 11.11° C | 47% | 1009.2 hPa | 0 mm | - | 228 W/m² | - |
| 1777828701 | 11.11° C | 49% | 1009.2 hPa | 0 mm | - | 309 W/m² | - |
* Rain latest hour (hover to see other rain measurements)
** Current wind speed in m/s (hover to see current wind gust speed)